Showing default

QIANFAN-185, 69403

Orbit data source: Space-Track

QIANFAN-185, 69403 is a Chinese payload satellite in LEO that was launched on Fri, 05 Jun 2026 UTC via a CHANG ZHENG 8 launch vehicle from the Wenchang Satellite Launch Center (WSC). Payload-class satellites include a variety of spacecraft equipped with specific instruments for various scientific and technological missions. These include communications satellites like Starlink; space stations such as the ISS; scientific satellites like the Hubble; Earth observation satellites from companies like Planet Labs, Umbra, and HawkEye 360; GPS; miniature CubeSats for education and research; and military/defense satellites.

Loading next visibility...
Identifier
69403, 2026-125C
Orbit
LEO
Country
Flag of CNCN / PRC
Related business
Manufacturer
SECM?
Mission
Operational spacecraft
Bus & Motor
QIANFAN, Unknown motor
Mass
267 kg wet, ~267 kg dry
Launch date (UTC)
2026-06-05 (2 weeks ago)
Launch vehicle
CHANG ZHENG 8
Launch site
Wenchang Satellite Launch Center (WSC)
Object type
Payload
Rocket body
Debris
Shape & HBR
Unknown
Radar Cross Section
Large (>1 m²)

Expand to show TLE details & history
Last TLE update: 1 day ago

TLE from 1 day ago
0 QIANFAN-185
1 69403U 26125C   26170.80593634 -.01850064  00000-0 -10873+1 0  9997
2 69403  88.9950 280.1526 0020620 152.1571 208.0723 14.11744531  2071
Epoch: 2026-06-19T19:20Z
TLE epoch observation values (Epoch: 2026-06-19T19:20:32.899Z)
Latitude
-0.00002°
Longitude
81.98589°
Altitude
869.616 km
Speed
7.411 km/s
True Right ascension
18h 40m 36s
True Declination
0° 00' 00"
Sunlit
Object was in full shadow at epoch
Visualization orbit readout
Latitude
Unknown
Longitude
Unknown
Altitude
Unknown
Speed
Unknown
Apparent Right ascension
Unknown
Apparent Declination
Unknown
Sunlit
N/A
Visualization observer readout
Local Sidereal Time
07:12:00
Azimuth
Unknown
Elevation
Unknown
Doppler factor
Unknown
Orbital elements
Apogee altitude
865.276 km
Perigee altitude
835.466 km
Semi-major axis
7,228.508 km
Eccentricity
0.00206
Inclination
88.995°
RAAN
280.1526°
Arg. of periapsis
152.1571°
True anomaly
207.96136°
Mean anomaly
208.0723°
Eccentric anomaly
208.0168°
Mean motion
3.53159 °/min
Orbital period
101.94 mins
BSTAR
-1.0873
Loading maneuver chart data...
Computing Atmospheric mass density...
Loading historical data...
Loading historical data...
Loading historical data...
Loading historical data...
Loading historical data...
Loading historical data...
Loading historical data...

Documentation

Showing up to 5 results
|